User: anonymous   Login
Location: Unspecified
(0.0000°N, 0.0000°E)
Time: 09:09:18
(UTC+02:00)
Language:

Cosmos 407 Rocket - Orbit

View from above orbital plane
View from above orbital plane
View from above satellite
View from above satellite

Ground track
Ground track

The orbit data is extracted from the following two-line orbital elements,

1 05175U 71035B   16268.82914242  .00000034  00000-0  19820-4 0  9990
2 05175  74.0496 337.4197 0031139 253.0021 106.7719 14.37819747376800
Epoch (UTC): 24 September 2016 19:53:57
Eccentricity: 0.0031139
inclination: 74.0496°
perigee height: 743 km
apogee height: 788 km
right ascension of ascending node: 337.4197°
argument of perigee: 253.0021°
revolutions per day: 14.37819747
mean anomaly at epoch: 106.7719°
orbit number at epoch: 37680

The dashed part of the orbit path shows where the satellite is in the earth's shadow,  

DLR